Regional Weather Roundup
Issued by NWS

Home | Current Version | Previous Version | Graphics & Text | Print | Product List | Glossary On
Versions: 1 2 3 4 5 6 7 8 9 10 11 12 13 14 15 16 17 18 19 20 21 22 23 24 25 26 27 28 29 30 31 32 33 34 35 36 37 38 39 40 41 42 43 44 45 46 47 48 49 50
000
ASUS43 KBIS 040902
RWRND

NORTH DAKOTA REGIONAL WEATHER ROUNDUP
NATIONAL WEATHER SERVICE BISMARCK ND
400 AM CDT WED MAY 04 2016

NOTE: "FAIR" INDICATES FEW OR NO CLOUDS BELOW 12,000 FEET WITH NO
SIGNIFICANT WEATHER AND/OR OBSTRUCTIONS TO VISIBILITY.


NDZ001>003-009>011-017-041000-
NORTHWEST NORTH DAKOTA

CITY           SKY/WX    TMP DP  RH WIND       PRES   REMARKS
WILLISTON      CLEAR     43  38  82 CALM      30.07S
MINOT          CLEAR     47  28  47 CALM      30.08S
MINOT AFB      CLEAR     40  31  69 S3        30.07S
$$

NDZ018>021-031>035-040>046-041000-
SOUTHWEST NORTH DAKOTA

CITY           SKY/WX    TMP DP  RH WIND       PRES   REMARKS
BISMARCK       CLEAR     37  33  85 CALM      30.11R
DICKINSON      CLEAR     42  34  73 S6        30.09S
GARRISON         N/A     43  31  62 CALM      30.09S
HETTINGER ARPT CLEAR     38  32  79 CALM      30.13R
$$

NDZ004>008-012>016-024-026-027-054-041000-
NORTHEAST NORTH DAKOTA

CITY           SKY/WX    TMP DP  RH WIND       PRES   REMARKS
GRAND FORKS    CLEAR     37  30  75 NW7       30.05R
GRND FRKS AFB  CLEAR     39  32  75 N8        30.05R
DEVILS LAKE    CLEAR     36  31  82 N6        30.08S
$$

NDZ022-023-025-028>030-036>039-047>053-041000-
SOUTHEAST NORTH DAKOTA

CITY           SKY/WX    TMP DP  RH WIND       PRES   REMARKS
FARGO          CLEAR     40  28  62 N8        30.03R
JAMESTOWN      CLEAR     36  30  79 NW6       30.06S
$$




USA.gov is the U.S. government's official web portal to all federal, state and local government web resources and services.